Milwaukee General Mitchell International Airport (MKE)


Airport Diagram
Current Weather/Forecast (VFR Conditions)
METAR KMKE 140252Z 16006KT 10SM FEW250 22/17 A3000 RMK AO2 SLP154 T02170167 53003
TAF KMKE 132320Z 1400/1506 13007KT P6SM FEW200 FM141600 18012G17KT P6SM SCT250 FM142200 16012KT P6SM BKN250

All Charts
General
Chart Name Download
AIRPORT DIAGRAM
TAKEOFF MINIMUMS
HOT SPOT

Departures
Chart Name Download
ACCRA FIVE (RNAV)
MITCHELL SIX
UECKR SIX (RNAV)

Arrivals
Chart Name Download
GOPAC TWO (RNAV)

Approaches
Chart Name Download
ILS OR LOC RWY 01L
ILS OR LOC RWY 07R
ILS OR LOC RWY 19R
ILS RWY 01L (CAT II - III)
RNAV (RNP) Y RWY 07R
RNAV (RNP) Y RWY 25L
RNAV (GPS) RWY 01L
RNAV (GPS) RWY 01R
RNAV (GPS) RWY 07L
RNAV (GPS) RWY 13
RNAV (GPS) RWY 19L
RNAV (GPS) RWY 19R
RNAV (GPS) RWY 25R
RNAV (GPS) RWY 31
RNAV (GPS) Z RWY 07R
RNAV (GPS) Z RWY 25L
LOC RWY 25L